Regional Weather Roundup
Issued by NWS

Home | Current Version | Previous Version | Text Only | Print | Product List | Glossary Off
Versions: 1 2 3 4 5 6 7 8 9 10 11 12 13 14 15 16 17 18 19 20 21 22 23 24 25 26 27 28

000
ASUS45 KSLC 220410
RWRUT

UTAH REGIONAL WEATHER ROUNDUP
NATIONAL WEATHER SERVICE SALT LAKE CITY UT
900 PM MST TUE FEB 21 2017

UTZ001>011-023>025-220500-

NORTHERN UTAH

CITY           SKY/WX    TMP DP  RH WIND       PRES   REMARKS
BRIGHAM CITY     N/A     40  34  78 S5        30.06R
HILL AFB       CLOUDY    34  32  93 SE10      30.07F WCI  26
LOGAN          CLOUDY    36  34  92 SW7       30.03F WCI  30
OGDEN          LGT RAIN  36  34  92 SE10      30.05S WCI  28
SALT LAKE CITY LGT SNOW  34  33  96 CALM      30.11R FOG
TOOELE VALLEY  LGT RAIN  32  32 100 E5        30.12R WCI  27
WENDOVER       PTCLDY    39  25  56 NW20      30.04R WCI  30
HEBER CITY     MIX PCPN  37  34  87 E10       30.01R WCI  30
WEST JORDAN    CLOUDY    35  35 100 N3        30.11R

$$

UTZ011>015-024>027-220500-

CENTRAL/NORTHEAST UTAH

CITY           SKY/WX    TMP DP  RH WIND       PRES   REMARKS
PROVO AIRPORT  LGT RAIN  40  34  79 NW18      30.04S WCI  31
MOAB/CANYONLAN MOCLDY    54  36  50 S12       30.02S
DELTA          PTCLDY    46  34  61 S25G31    30.01S
PRICE          PTCLDY    37  35  92 NE8       30.00S WCI  31
RICHFIELD      CLEAR     50  28  43 SW14G21   30.07R
ROOSEVELT      CLEAR     41  36  81 W7        29.95S
VERNAL         CLEAR     40  33  76 SW8       29.93S WCI  34

$$

UTZ013>016-019>022-027-220500-

SOUTHERN UTAH

CITY           SKY/WX    TMP DP  RH WIND       PRES   REMARKS
BRYCE CANYON   MOCLDY    39  29  67 SW16G25   30.17F WCI  30
CEDAR CITY     MOCLDY    48  31  51 SW24G31   30.07S
MILFORD        PTCLDY    44  36  73 S13       30.08F
ST GEORGE      CLOUDY    59  44  57 S8        30.10F
HANKSVILLE     PTCLDY    55  32  41 SW22G35   30.04F
KANAB          CLEAR     50  39  66 SW9       30.21R
BLANDING       CLOUDY    52  34  50 SW10G16   30.22F

$$

REGIONAL REPORTS     COLORADO/ARIZONA

CITY           SKY/WX    TMP DP  RH WIND       PRES   REMARKS
CRAIG, CO      CLEAR     49  28  44 SW23G38   29.94S
GRAND JUNCTION CLOUDY    50  37  61 SE10      30.02F
RIFLE, CO      CLOUDY    47  34  60 NE7       30.02F
MONTROSE, CO   CLOUDY    55  30  38 SW24G30   30.08F
CORTEZ, CO     CLOUDY    51  36  56 CALM      30.18F
COLORADO CITY    N/A     52  41  66 SW9G16    30.20S
PAGE, AZ       MOCLDY    54  35  48 SE6       30.10S
GRAND CANYON   PTCLDY    42  40  92 SW5       30.26F
KINGMAN, AZ    PTCLDY    50  45  83 S6        30.18S
FLAGSTAFF, AZ  CLEAR     42  38  85 SW6       30.31F

$$

REGIONAL REPORTS    NEVADA/IDAHO/WYOMING

CITY           SKY/WX    TMP DP  RH WIND       PRES   REMARKS
LAS VEGAS, NV  MOCLDY    63  39  41 S18G29    30.06F
ELY, NY        LGT SNOW  33  32  96 N5        30.04R FOG     WCI  29
ELKO, NV       CLOUDY    34  31  88 W5        30.08R WCI  30
POCATELLO, ID  PTCLDY    36  29  75 SW14      29.98S WCI  27
BURLEY, ID     CLOUDY    40  27  59 W10       30.00S WCI  33
FORT BRIDGER,  SNOW      30  30 100 NW10      30.06R VSB 1/2 WCI  21
EVANSTON, WY   LGT SNOW  29  26  89 N5        30.02F VSB 1   WCI  24
ROCK SPRINGS,  LGT SNOW  30  27  88 NW12      30.01R VSB 3/4 WCI  20

$$




USA.gov is the U.S. government's official web portal to all federal, state and local government web resources and services.